Miscellaneous Local Product
Issued by NWS North Platte, NE

Home | Current Version | Previous Version | Text Only | Print | Product List | Glossary On
Versions: 1 2 3 4 5 6 7 8 9 10 11 12 13 14 15 16 17 18 19 20 21 22 23 24 25 26 27 28 29 30 31 32 33 34 35 36 37 38 39 40 41 42 43 44 45 46 47 48 49 50
000
AXUS43 KLBF 301010
MISLBF


WESTERN AND NORTH CENTRAL NEBRASKA HOURLY WEATHER ROUNDUP
NATIONAL WEATHER SERVICE NORTH PLATTE NE
500 AM CDT SUN AUG 30 2015

NOTE: "FAIR" INDICATES FEW OR NO CLOUDS BELOW 12,000 FEET WITH NO
SIGNIFICANT WEATHER AND/OR OBSTRUCTIONS TO VISIBILITY.

NOTE: STATIONS NOT REPORTING VARIABLES SUCH AS SKY/WEATHER OR
PRESSURE ARE PROVIDED BY THE NEBRASKA DEPARTMENT OF
ROADS...RAWS...AND APRS NETWORKS...AND ARE NOT UNDER
NATIONAL WEATHER SERVICE QUALITY CONTROL.

...OBSERVATIONS IN AND NEAR THE EASTERN PANHANDLE OF NEBRASKA...

CITY           SKY/WX    TMP DP  RH WIND       PRES   REMARKS
PINE RIDGE     CLEAR     66  44  45 S10       29.93F
CHADRON        PTCLDY    70  42  36 SW10G21   29.91S
ALLIANCE       PTCLDY    59  43  55 SE8       30.00F
SIDNEY         CLEAR     66  44  45 S13       30.06S
CRESCENT LAKE    N/A     60  48  64 S5          N/A
BIG SPRINGS      N/A     68  48  48 S10         N/A
$$

...OBSERVATIONS IN NORTH CENTRAL NEBRASKA...

CITY           SKY/WX    TMP DP  RH WIND       PRES   REMARKS
VALENTINE      CLEAR     65  56  72 S10       29.95S
THEDFORD       CLEAR     64  55  72 S10       30.02R
AINSWORTH      CLEAR     65  57  76 S12       29.97F
O`NEILL        PTCLDY    62  61  97 S7        29.99S
ORD            PTCLDY    57  57 100 SE3       30.00F FOG
BROKEN BOW     CLEAR     60  56  86 SE3       30.02F
SPRINGVIEW       N/A     62  59  89 CALM        N/A
SARGENT          N/A     58  57  96 CALM        N/A
CHAMBERS         N/A     61  59  94 S5          N/A
EWING            N/A     62  58  88 S3          N/A
$$

...OBSERVATIONS IN SOUTHWEST NEBRASKA AND FAR NORTHEAST COLORADO...

CITY           SKY/WX    TMP DP  RH WIND       PRES   REMARKS
WRAY           FAIR      64  46  50 SW7       30.06S
HOLYOKE        FAIR      61  48  63 SW7       30.06S
IMPERIAL       CLEAR     59  47  64 S5        30.04F
OGALLALA       PTCLDY    60  48  66 CALM      30.04S
NORTH PLATTE   CLEAR     63  52  67 S7        30.03S
MCCOOK         CLEAR     63  52  67 SW3       30.04S
LEXINGTON      CLEAR     59  57  93 CALM      30.04S
PAXTON           N/A     58  52  81 CALM        N/A
BRADY            N/A     57  53  87 CALM        N/A
CALLAWAY         N/A     58  57  96 S8          N/A
$$

...OBSERVATIONS IN CENTRAL LINCOLN COUNTY AREA...

CITY           SKY/WX    TMP DP  RH WIND       PRES   REMARKS
N.P. AIRPORT   CLEAR     63  52  67 S7        30.03S
N.P. DOWNTOWN    N/A     63  54  72 CALM        N/A
N.P. SOUTHEAST   N/A     65  53  65 S3          N/A
$$

...SOME OBSERVATIONS FROM AROUND THE REGION...

CITY           SKY/WX    TMP DP  RH WIND       PRES   REMARKS
DENVER         PTCLDY    69  39  33 S14       30.09R
LARAMIE        PTCLDY    49  36  61 S8        30.22S
CHEYENNE       CLEAR     54  45  71 W7        30.13F
SCOTTSBLUFF    PTCLDY    70  41  34 S9        29.99F
RAPID CITY     PTCLDY    63  47  55 SE13      29.86F
PIERRE         CLEAR     67  57  70 VRB3      29.83S
WINNER         FAIR      71  58  63 S20       29.90S
SIOUX FALLS    CLOUDY    62  60  93 S13       29.98F FOG
OMAHA          MOCLDY    62  60  93 SE6       30.03S FOG
GRAND ISLAND   CLOUDY    62  62 100 S9        30.04S FOG
KANSAS CITY    MOCLDY    65  60  84 E3        30.02S
WICHITA        CLEAR     61  59  93 NW5       30.01F
HAYS           CLOUDY    52  45  76 S3        30.05S VSB 1/2
LIBERAL        CLEAR     57  50  77 W5        30.09S
GOODLAND       CLOUDY    65  48  54 SW13      30.08F
$$



USA.gov is the U.S. government's official web portal to all federal, state and local government web resources and services.